Location: Morehouse Lake Observatory
(43.3628°N, 74.6770°W)
Time: 20:12:50
(UTC-05:00)

Envisat - Pass Details

Date: 21 October 2019
Orbit: 764 x 766 km, 98.1° (Epoch: 14 November)

Event Time Altitude Azimuth Distance (km) Brightness Sun altitude
Rises 19:31:46 0° 183° (S) 3,217 6.3 -16.2°
Reaches altitude 10° 19:34:09 10° 189° (S) 2,295 5.6 -16.6°
Maximum altitude 19:38:59 44° 262° (W) 1,047 4.2 -17.5°
Drops below altitude 10° 19:43:51 10° 334° (NNW) 2,311 5.8 -18.4°
Sets 19:46:16 0° 341° (NNW) 3,241 6.5 -18.9°
